QPF
0.01 0.01 0.00 0.00 0.00 0.00 0.00 0.00 0.00 0.00 0.00 0.00 0.00 0.00 0.00 0.00 0.00 0.00 0.00 0.00 0.00 0.00 0.00 0.00 0.01 0.01 0.01 0.01 0.01 0.01 0.01 0.01 0.01 0.01 0.01 0.01 0.01 0.01 0.01 0.02 0.02 0.03 0.04 0.03 0.02 0.02 0.03 0.03 0.02
0.01 0.01 0.01 0.00 0.00 0.00 0.00 0.00 0.00 0.00 0.00 0.00 0.00 0.00 0.00 0.00 0.00 0.00 0.00 0.00 0.00 0.00 0.00 0.00 0.01 0.01 0.01 0.01 0.01 0.01 0.01 0.01 0.01 0.01 0.01 0.01 0.01 0.01 0.01 0.01 0.02 0.02 0.03 0.03 0.03 0.03 0.03 0.02 0.02
0.01 0.01 0.01 0.00 0.00 0.00 0.00 0.00 0.00 0.00 0.00 0.00 0.00 0.00 0.00 0.00 0.00 0.00 0.00 0.00 0.00 0.00 0.00 0.00 0.01 0.01 0.01 0.01 0.01 0.01 0.02 0.01 0.01 0.01 0.01 0.01 0.01 0.02 0.02 0.01 0.01 0.02 0.02 0.02 0.02 0.03 0.04 0.02 0.02
0.01 0.01 0.01 0.00 0.00 0.00 0.00 0.00 0.00 0.00 0.00 0.00 0.00 0.00 0.00 0.00 0.00 0.00 0.00 0.00 0.00 0.00 0.00 0.00 0.01 0.01 0.01 0.01 0.01 0.02 0.02 0.02 0.02 0.02 0.01 0.01 0.02 0.02 0.02 0.02 0.01 0.01 0.01 0.02 0.02 0.03 0.04 0.03 0.02
0.01 0.01 0.01 0.00 0.00 0.00 0.00 0.00 0.00 0.00 0.00 0.00 0.00 0.00 0.00 0.00 0.00 0.00 0.00 0.00 0.00 0.00 0.00 0.00 0.01 0.01 0.01 0.01 0.02 0.02 0.02 0.02 0.02 0.02 0.02 0.02 0.02 0.02 0.02 0.02 0.02 0.01 0.01 0.01 0.01 0.02 0.02 0.02 0.02
0.01 0.01 0.00 0.00 0.00 0.00 0.00 0.00 0.00 0.00 0.00 0.00 0.00 0.00 0.00 0.00 0.00 0.00 0.00 0.00 0.00 0.00 0.00 0.00 0.01 0.01 0.01 0.02 0.02 0.02 0.02 0.02 0.02 0.02 0.02 0.03 0.02 0.02 0.02 0.02 0.02 0.01 0.01 0.01 0.01 0.01 0.01 0.01 0.01
0.01 0.01 0.00 0.00 0.00 0.00 0.00 0.00 0.00 0.00 0.00 0.00 0.00 0.00 0.00 0.00 0.00 0.00 0.00 0.00 0.00 0.00 0.00 0.01 0.01 0.01 0.02 0.02 0.02 0.02 0.02 0.02 0.03 0.03 0.03 0.03 0.03 0.02 0.02 0.02 0.02 0.02 0.02 0.02 0.01 0.01 0.01 0.01 0.01
0.01 0.01 0.00 0.00 0.00 0.00 0.00 0.00 0.00 0.00 0.00 0.00 0.00 0.00 0.00 0.00 0.00 0.00 0.00 0.00 0.00 0.00 0.01 0.01 0.01 0.02 0.02 0.02 0.02 0.02 0.02 0.02 0.03 0.03 0.03 0.03 0.03 0.03 0.03 0.02 0.02 0.02 0.03 0.02 0.02 0.02 0.02 0.01 0.01
0.01 0.01 0.00 0.00 0.00 0.00 0.00 0.00 0.00 0.00 0.00 0.00 0.00 0.00 0.00 0.00 0.00 0.00 0.00 0.00 0.00 0.00 0.01 0.01 0.02 0.02 0.03 0.03 0.03 0.02 0.02 0.02 0.02 0.03 0.03 0.03 0.03 0.02 0.02 0.02 0.02 0.03 0.03 0.02 0.02 0.02 0.02 0.02 0.02
0.01 0.01 0.00 0.00 0.00 0.00 0.00 0.00 0.00 0.00 0.00 0.00 0.00 0.00 0.00 0.00 0.00 0.00 0.00 0.00 0.00 0.00 0.01 0.01 0.02 0.02 0.03 0.04 0.04 0.03 0.02 0.02 0.02 0.02 0.03 0.03 0.02 0.02 0.02 0.02 0.02 0.03 0.03 0.03 0.03 0.02 0.02 0.02 0.03
0.00 0.01 0.01 0.00 0.00 0.00 0.00 0.00 0.00 0.00 0.00 0.00 0.00 0.00 0.00 0.00 0.00 0.00 0.00 0.00 0.00 0.01 0.01 0.02 0.02 0.03 0.03 0.05 0.04 0.04 0.03 0.02 0.02 0.02 0.02 0.02 0.02 0.02 0.02 0.03 0.02 0.02 0.03 0.03 0.03 0.03 0.03 0.02 0.02
0.00 0.00 0.01 0.01 0.00 0.00 0.00 0.00 0.00 0.00 0.00 0.00 0.00 0.00 0.00 0.00 0.00 0.00 0.00 0.00 0.00 0.01 0.02 0.03 0.04 0.04 0.04 0.06 0.07 0.04 0.02 0.01 0.01 0.01 0.01 0.01 0.02 0.02 0.02 0.03 0.03 0.03 0.02 0.02 0.02 0.02 0.02 0.02 0.02
0.00 0.00 0.00 0.00 0.00 0.00 0.00 0.00 0.00 0.00 0.00 0.00 0.00 0.00 0.00 0.00 0.00 0.00 0.00 0.00 0.00 0.01 0.01 0.03 0.04 0.05 0.05 0.06 0.08 0.07 0.03 0.01 0.01 0.01 0.01 0.01 0.01 0.01 0.02 0.02 0.03 0.02 0.03 0.04 0.04 0.03 0.02 0.02 0.02
0.00 0.00 0.00 0.00 0.00 0.00 0.00 0.00 0.00 0.00 0.00 0.00 0.00 0.00 0.00 0.00 0.00 0.00 0.00 0.00 0.00 0.00 0.01 0.02 0.03 0.04 0.06 0.06 0.05 0.07 0.04 0.02 0.01 0.01 0.01 0.01 0.01 0.01 0.01 0.02 0.02 0.02 0.02 0.03 0.04 0.04 0.03 0.03 0.02
0.00 0.00 0.00 0.00 0.00 0.00 0.00 0.00 0.00 0.00 0.00 0.00 0.00 0.00 0.00 0.00 0.00 0.00 0.00 0.00 0.00 0.00 0.01 0.02 0.03 0.04 0.05 0.06 0.05 0.05 0.06 0.03 0.01 0.01 0.01 0.01 0.01 0.01 0.01 0.02 0.02 0.02 0.02 0.03 0.03 0.03 0.03 0.02 0.02
0.00 0.00 0.00 0.00 0.00 0.00 0.00 0.00 0.00 0.00 0.00 0.00 0.00 0.00 0.00 0.00 0.00 0.00 0.00 0.00 0.00 0.00 0.01 0.02 0.03 0.04 0.05 0.05 0.05 0.04 0.05 0.03 0.01 0.01 0.01 0.01 0.01 0.01 0.01 0.01 0.02 0.02 0.02 0.03 0.03 0.03 0.02 0.02 0.02
0.00 0.00 0.00 0.00 0.00 0.00 0.00 0.00 0.00 0.00 0.00 0.00 0.00 0.00 0.00 0.00 0.00 0.00 0.00 0.00 0.00 0.00 0.01 0.02 0.03 0.04 0.04 0.05 0.06 0.04 0.04 0.03 0.02 0.01 0.01 0.01 0.01 0.01 0.01 0.01 0.01 0.02 0.02 0.03 0.03 0.03 0.02 0.02 0.02
0.01 0.01 0.01 0.00 0.00 0.00 0.00 0.00 0.00 0.00 0.00 0.00 0.00 0.01 0.01 0.00 0.00 0.00 0.00 0.00 0.00 0.01 0.01 0.01 0.03 0.05 0.05 0.06 0.07 0.07 0.05 0.04 0.03 0.02 0.01 0.01 0.01 0.00 0.01 0.02 0.02 0.02 0.03 0.03 0.03 0.03 0.02 0.01 0.02
0.01 0.01 0.01 0.00 0.00 0.00 0.00 0.00 0.00 0.00 0.00 0.00 0.00 0.01 0.01 0.00 0.00 0.00 0.00 0.00 0.00 0.01 0.01 0.01 0.02 0.06 0.07 0.06 0.07 0.07 0.06 0.04 0.03 0.02 0.01 0.01 0.01 0.01 0.01 0.01 0.02 0.03 0.03 0.03 0.03 0.03 0.02 0.02 0.02
0.03 0.02 0.01 0.01 0.01 0.01 0.01 0.00 0.00 0.00 0.01 0.01 0.01 0.01 0.00 0.00 0.00 0.00 0.00 0.01 0.00 0.00 0.01 0.01 0.01 0.04 0.08 0.07 0.06 0.06 0.05 0.04 0.04 0.03 0.02 0.01 0.01 0.01 0.01 0.01 0.02 0.02 0.03 0.04 0.04 0.04 0.04 0.04 0.03
0.03 0.03 0.02 0.02 0.02 0.02 0.02 0.01 0.01 0.01 0.01 0.01 0.01 0.01 0.00 0.00 0.00 0.00 0.00 0.00 0.00 0.01 0.01 0.01 0.01 0.01 0.04 0.08 0.09 0.07 0.08 0.06 0.05 0.04 0.02 0.01 0.01 0.02 0.02 0.02 0.02 0.03 0.03 0.04 0.04 0.04 0.05 0.05 0.05
0.02 0.02 0.03 0.03 0.05 0.04 0.02 0.02 0.02 0.01 0.01 0.01 0.01 0.01 0.01 0.00 0.00 0.00 0.00 0.00 0.00 0.00 0.01 0.01 0.01 0.01 0.02 0.04 0.09 0.09 0.08 0.08 0.04 0.03 0.02 0.01 0.01 0.01 0.02 0.02 0.03 0.03 0.04 0.04 0.04 0.05 0.05 0.05 0.05
0.01 0.01 0.03 0.04 0.06 0.04 0.02 0.01 0.01 0.01 0.01 0.01 0.00 0.01 0.01 0.00 0.00 0.00 0.00 0.00 0.00 0.00 0.01 0.01 0.01 0.01 0.01 0.02 0.04 0.07 0.08 0.08 0.08 0.06 0.04 0.02 0.02 0.02 0.02 0.02 0.03 0.04 0.04 0.04 0.04 0.06 0.07 0.06 0.04
0.01 0.02 0.03 0.05 0.05 0.03 0.02 0.01 0.01 0.01 0.01 0.01 0.00 0.00 0.01 0.01 0.01 0.00 0.00 0.00 0.00 0.00 0.01 0.01 0.01 0.01 0.01 0.01 0.02 0.04 0.05 0.07 0.08 0.08 0.06 0.04 0.03 0.03 0.03 0.02 0.03 0.04 0.05 0.05 0.05 0.05 0.07 0.07 0.05
0.02 0.04 0.04 0.04 0.03 0.02 0.01 0.01 0.01 0.01 0.01 0.01 0.00 0.00 0.01 0.01 0.01 0.01 0.00 0.00 0.00 0.00 0.01 0.01 0.01 0.01 0.01 0.01 0.01 0.02 0.04 0.04 0.04 0.05 0.05 0.05 0.05 0.05 0.04 0.04 0.03 0.04 0.05 0.06 0.06 0.06 0.07 0.08 0.07
0.03 0.03 0.02 0.02 0.01 0.01 0.00 0.01 0.01 0.01 0.01 0.00 0.00 0.00 0.01 0.01 0.01 0.01 0.01 0.01 0.00 0.00 0.00 0.01 0.01 0.01 0.01 0.01 0.01 0.01 0.02 0.04 0.04 0.03 0.04 0.04 0.05 0.06 0.07 0.07 0.07 0.06 0.06 0.07 0.07 0.08 0.07 0.07 0.07
0.02 0.01 0.01 0.01 0.01 0.00 0.00 0.00 0.00 0.01 0.00 0.00 0.00 0.00 0.01 0.01 0.02 0.01 0.01 0.00 0.00 0.00 0.00 0.02 0.02 0.01 0.01 0.01 0.01 0.01 0.02 0.03 0.04 0.04 0.04 0.03 0.03 0.04 0.05 0.07 0.09 0.11 0.11 0.11 0.11 0.11 0.09 0.08 0.07
0.01 0.00 0.01 0.01 0.02 0.01 0.00 0.00 0.00 0.00 0.00 0.00 0.00 0.01 0.01 0.01 0.01 0.02 0.01 0.00 0.00 0.00 0.00 0.01 0.03 0.02 0.01 0.01 0.00 0.01 0.02 0.02 0.03 0.03 0.04 0.03 0.02 0.02 0.03 0.04 0.06 0.09 0.11 0.11 0.12 0.12 0.11 0.10 0.09
0.00 0.00 0.01 0.01 0.01 0.01 0.00 0.00 0.00 0.00 0.00 0.00 0.00 0.00 0.01 0.01 0.01 0.02 0.01 0.00 0.00 0.00 0.01 0.01 0.04 0.02 0.01 0.01 0.00 0.00 0.01 0.02 0.03 0.04 0.04 0.04 0.03 0.03 0.02 0.02 0.03 0.04 0.07 0.09 0.11 0.12 0.12 0.12 0.11
0.00 0.00 0.01 0.01 0.01 0.01 0.01 0.00 0.00 0.00 0.00 0.00 0.00 0.00 0.00 0.01 0.01 0.02 0.01 0.01 0.01 0.01 0.01 0.01 0.02 0.02 0.01 0.01 0.01 0.00 0.00 0.01 0.02 0.03 0.04 0.05 0.05 0.04 0.04 0.02 0.02 0.02 0.04 0.05 0.07 0.09 0.10 0.10 0.10
MSLP
1012.17 1012.50 1012.83 1013.10 1013.23 1013.20 1013.00 1012.65 1012.21 1011.75 1011.33 1010.97 1010.69 1010.45 1010.21 1009.92 1009.57 1009.15 1008.70 1008.29 1008.00 1007.87 1007.96 1008.25 1008.70 1009.24 1009.79 1010.26 1010.63 1010.86 1011.00 1011.07 1011.15 1011.26 1011.42 1011.63 1011.85 1012.04 1012.18 1012.24 1012.24 1012.20 1012.16 1012.15 1012.19 1012.30 1012.45 1012.62 1012.75
1012.15 1012.50 1012.83 1013.07 1013.17 1013.08 1012.81 1012.40 1011.89 1011.36 1010.86 1010.45 1010.10 1009.81 1009.54 1009.25 1008.91 1008.52 1008.13 1007.79 1007.57 1007.51 1007.67 1008.01 1008.51 1009.08 1009.65 1010.15 1010.54 1010.81 1010.97 1011.08 1011.19 1011.32 1011.49 1011.69 1011.89 1012.06 1012.18 1012.22 1012.21 1012.17 1012.14 1012.14 1012.21 1012.34 1012.50 1012.67 1012.81
1012.22 1012.58 1012.89 1013.09 1013.13 1012.98 1012.64 1012.15 1011.58 1010.98 1010.43 1009.95 1009.55 1009.22 1008.91 1008.61 1008.27 1007.92 1007.59 1007.32 1007.17 1007.20 1007.42 1007.81 1008.35 1008.94 1009.52 1010.03 1010.42 1010.71 1010.90 1011.04 1011.17 1011.32 1011.50 1011.69 1011.88 1012.04 1012.13 1012.16 1012.15 1012.12 1012.11 1012.14 1012.24 1012.38 1012.56 1012.73 1012.86
1012.39 1012.73 1013.01 1013.15 1013.12 1012.90 1012.50 1011.95 1011.33 1010.68 1010.08 1009.55 1009.10 1008.73 1008.40 1008.08 1007.76 1007.45 1007.17 1006.97 1006.90 1007.00 1007.27 1007.70 1008.25 1008.84 1009.40 1009.90 1010.29 1010.57 1010.77 1010.93 1011.08 1011.24 1011.43 1011.62 1011.80 1011.94 1012.03 1012.06 1012.06 1012.05 1012.06 1012.13 1012.25 1012.41 1012.59 1012.76 1012.88
1012.59 1012.90 1013.13 1013.21 1013.11 1012.83 1012.38 1011.79 1011.14 1010.47 1009.84 1009.29 1008.81 1008.41 1008.06 1007.74 1007.44 1007.16 1006.93 1006.80 1006.79 1006.94 1007.25 1007.69 1008.22 1008.78 1009.31 1009.76 1010.12 1010.39 1010.58 1010.74 1010.90 1011.08 1011.27 1011.47 1011.65 1011.78 1011.87 1011.91 1011.92 1011.93 1011.97 1012.07 1012.21 1012.39 1012.57 1012.73 1012.83
1012.76 1013.04 1013.21 1013.22 1013.07 1012.74 1012.26 1011.66 1011.01 1010.35 1009.72 1009.17 1008.69 1008.28 1007.92 1007.60 1007.31 1007.06 1006.87 1006.79 1006.82 1007.00 1007.32 1007.74 1008.24 1008.74 1009.21 1009.60 1009.91 1010.14 1010.32 1010.48 1010.64 1010.83 1011.03 1011.24 1011.42 1011.56 1011.65 1011.69 1011.72 1011.75 1011.82 1011.93 1012.09 1012.27 1012.44 1012.58 1012.66
1012.86 1013.08 1013.19 1013.15 1012.95 1012.60 1012.12 1011.54 1010.92 1010.29 1009.70 1009.17 1008.70 1008.30 1007.94 1007.62 1007.34 1007.10 1006.94 1006.88 1006.93 1007.11 1007.40 1007.79 1008.22 1008.65 1009.05 1009.37 1009.62 1009.81 1009.98 1010.13 1010.31 1010.51 1010.73 1010.95 1011.14 1011.28 1011.38 1011.43 1011.46 1011.51 1011.58 1011.70 1011.86 1012.03 1012.18 1012.29 1012.34
1012.84 1013.01 1013.06 1012.97 1012.75 1012.40 1011.93 1011.40 1010.83 1010.26 1009.72 1009.23 1008.78 1008.38 1008.03 1007.71 1007.42 1007.19 1007.03 1006.97 1007.01 1007.16 1007.42 1007.74 1008.10 1008.46 1008.77 1009.03 1009.24 1009.41 1009.57 1009.73 1009.93 1010.15 1010.39 1010.62 1010.82 1010.97 1011.07 1011.12 1011.15 1011.19 1011.26 1011.37 1011.51 1011.65 1011.78 1011.85 1011.87
1012.72 1012.83 1012.82 1012.70 1012.46 1012.12 1011.70 1011.22 1010.72 1010.21 1009.72 1009.27 1008.85 1008.46 1008.10 1007.77 1007.48 1007.23 1007.05 1006.96 1006.97 1007.08 1007.28 1007.54 1007.83 1008.11 1008.37 1008.58 1008.76 1008.93 1009.09 1009.28 1009.51 1009.77 1010.03 1010.28 1010.49 1010.65 1010.74 1010.78 1010.80 1010.82 1010.87 1010.95 1011.06 1011.17 1011.26 1011.29 1011.28
1012.52 1012.57 1012.52 1012.37 1012.13 1011.80 1011.42 1010.99 1010.55 1010.10 1009.66 1009.23 1008.83 1008.44 1008.08 1007.73 1007.41 1007.14 1006.94 1006.81 1006.77 1006.83 1006.97 1007.17 1007.39 1007.62 1007.84 1008.03 1008.21 1008.39 1008.58 1008.81 1009.08 1009.37 1009.67 1009.93 1010.16 1010.31 1010.39 1010.42 1010.41 1010.41 1010.43 1010.47 1010.54 1010.61 1010.66 1010.67 1010.62
1012.29 1012.30 1012.20 1012.02 1011.77 1011.46 1011.11 1010.72 1010.31 1009.89 1009.48 1009.07 1008.67 1008.28 1007.90 1007.54 1007.20 1006.90 1006.66 1006.50 1006.42 1006.43 1006.51 1006.65 1006.84 1007.03 1007.23 1007.43 1007.62 1007.83 1008.07 1008.34 1008.65 1008.97 1009.29 1009.58 1009.80 1009.95 1010.02 1010.04 1010.01 1009.98 1009.97 1009.98 1010.01 1010.04 1010.06 1010.03 1009.96
1012.08 1012.03 1011.90 1011.70 1011.44 1011.13 1010.78 1010.40 1010.00 1009.59 1009.17 1008.76 1008.35 1007.96 1007.57 1007.20 1006.85 1006.54 1006.28 1006.09 1005.97 1005.94 1005.98 1006.09 1006.25 1006.43 1006.63 1006.84 1007.07 1007.31 1007.59 1007.90 1008.23 1008.58 1008.91 1009.20 1009.42 1009.57 1009.63 1009.63 1009.59 1009.54 1009.50 1009.49 1009.49 1009.50 1009.49 1009.44 1009.34
1011.88 1011.80 1011.64 1011.41 1011.13 1010.80 1010.44 1010.04 1009.62 1009.18 1008.74 1008.31 1007.90 1007.49 1007.11 1006.75 1006.42 1006.11 1005.86 1005.66 1005.53 1005.47 1005.49 1005.58 1005.72 1005.90 1006.11 1006.35 1006.60 1006.87 1007.17 1007.49 1007.84 1008.18 1008.51 1008.79 1009.00 1009.13 1009.19 1009.19 1009.14 1009.09 1009.05 1009.02 1009.01 1009.00 1008.97 1008.91 1008.81
1011.69 1011.59 1011.41 1011.16 1010.86 1010.50 1010.09 1009.64 1009.17 1008.69 1008.21 1007.76 1007.34 1006.95 1006.60 1006.28 1005.98 1005.72 1005.49 1005.31 1005.18 1005.13 1005.13 1005.21 1005.35 1005.53 1005.75 1006.00 1006.26 1006.54 1006.84 1007.15 1007.47 1007.79 1008.08 1008.33 1008.52 1008.64 1008.70 1008.70 1008.67 1008.63 1008.59 1008.57 1008.56 1008.56 1008.53 1008.46 1008.35
1011.49 1011.39 1011.20 1010.94 1010.60 1010.20 1009.73 1009.22 1008.68 1008.14 1007.62 1007.15 1006.74 1006.39 1006.09 1005.85 1005.63 1005.44 1005.27 1005.12 1005.02 1004.97 1004.97 1005.04 1005.18 1005.36 1005.58 1005.82 1006.07 1006.33 1006.60 1006.87 1007.13 1007.39 1007.62 1007.82 1007.98 1008.09 1008.15 1008.17 1008.16 1008.14 1008.13 1008.13 1008.13 1008.13 1008.11 1008.05 1007.94
1011.26 1011.17 1010.99 1010.72 1010.36 1009.91 1009.38 1008.79 1008.18 1007.57 1007.01 1006.54 1006.15 1005.86 1005.66 1005.51 1005.40 1005.30 1005.21 1005.12 1005.05 1005.01 1005.01 1005.07 1005.19 1005.36 1005.56 1005.78 1006.01 1006.23 1006.44 1006.64 1006.82 1006.99 1007.15 1007.29 1007.41 1007.50 1007.56 1007.59 1007.61 1007.62 1007.64 1007.66 1007.68 1007.70 1007.69 1007.64 1007.53
1011.00 1010.94 1010.78 1010.52 1010.14 1009.65 1009.05 1008.39 1007.70 1007.03 1006.45 1005.97 1005.64 1005.43 1005.33 1005.30 1005.31 1005.32 1005.31 1005.28 1005.24 1005.20 1005.20 1005.24 1005.34 1005.49 1005.66 1005.85 1006.04 1006.20 1006.34 1006.45 1006.54 1006.62 1006.69 1006.76 1006.83 1006.89 1006.95 1006.99 1007.03 1007.07 1007.11 1007.15 1007.19 1007.21 1007.21 1007.17 1007.07
1010.73 1010.71 1010.59 1010.35 1009.96 1009.43 1008.78 1008.05 1007.29 1006.57 1005.96 1005.50 1005.22 1005.10 1005.12 1005.21 1005.34 1005.46 1005.53 1005.55 1005.53 1005.49 1005.47 1005.49 1005.56 1005.67 1005.81 1005.97 1006.11 1006.21 1006.28 1006.31 1006.31 1006.29 1006.28 1006.28 1006.29 1006.32 1006.36 1006.41 1006.45 1006.50 1006.55 1006.59 1006.63 1006.66 1006.66 1006.62 1006.53
1010.48 1010.52 1010.45 1010.24 1009.85 1009.30 1008.60 1007.80 1006.98 1006.22 1005.59 1005.15 1004.92 1004.89 1005.01 1005.22 1005.46 1005.66 1005.80 1005.85 1005.85 1005.80 1005.75 1005.74 1005.77 1005.85 1005.96 1006.08 1006.18 1006.24 1006.24 1006.20 1006.12 1006.03 1005.94 1005.87 1005.83 1005.82 1005.84 1005.87 1005.91 1005.95 1005.98 1006.00 1006.02 1006.03 1006.02 1005.98 1005.90
1010.29 1010.40 1010.39 1010.21 1009.84 1009.27 1008.53 1007.68 1006.80 1006.00 1005.36 1004.93 1004.75 1004.78 1004.99 1005.29 1005.62 1005.89 1006.07 1006.15 1006.14 1006.07 1005.99 1005.94 1005.93 1005.98 1006.06 1006.16 1006.23 1006.25 1006.22 1006.13 1005.99 1005.84 1005.69 1005.57 1005.48 1005.43 1005.41 1005.42 1005.42 1005.42 1005.41 1005.40 1005.37 1005.34 1005.30 1005.25 1005.18
1010.19 1010.37 1010.42 1010.28 1009.93 1009.35 1008.57 1007.67 1006.75 1005.91 1005.25 1004.83 1004.68 1004.76 1005.03 1005.40 1005.78 1006.10 1006.31 1006.39 1006.37 1006.28 1006.17 1006.08 1006.04 1006.06 1006.12 1006.19 1006.25 1006.25 1006.20 1006.08 1005.91 1005.72 1005.53 1005.37 1005.24 1005.16 1005.10 1005.06 1005.02 1004.96 1004.89 1004.81 1004.71 1004.62 1004.54 1004.47 1004.40
1010.15 1010.40 1010.51 1010.41 1010.08 1009.50 1008.70 1007.77 1006.81 1005.94 1005.26 1004.84 1004.70 1004.81 1005.12 1005.52 1005.94 1006.29 1006.51 1006.59 1006.55 1006.44 1006.30 1006.18 1006.11 1006.10 1006.14 1006.20 1006.24 1006.24 1006.17 1006.04 1005.86 1005.65 1005.44 1005.26 1005.10 1004.99 1004.89 1004.80 1004.70 1004.58 1004.43 1004.26 1004.09 1003.92 1003.78 1003.67 1003.58
1010.12 1010.43 1010.60 1010.55 1010.23 1009.66 1008.85 1007.91 1006.93 1006.05 1005.36 1004.93 1004.79 1004.91 1005.23 1005.66 1006.09 1006.44 1006.67 1006.75 1006.70 1006.57 1006.41 1006.26 1006.17 1006.14 1006.16 1006.20 1006.23 1006.21 1006.14 1006.01 1005.82 1005.60 1005.39 1005.19 1005.02 1004.88 1004.75 1004.62 1004.46 1004.26 1004.03 1003.77 1003.50 1003.25 1003.04 1002.87 1002.76
1010.04 1010.40 1010.61 1010.59 1010.31 1009.75 1008.97 1008.03 1007.06 1006.18 1005.49 1005.07 1004.93 1005.05 1005.37 1005.79 1006.23 1006.58 1006.81 1006.89 1006.84 1006.70 1006.53 1006.36 1006.24 1006.18 1006.17 1006.19 1006.19 1006.16 1006.08 1005.94 1005.75 1005.53 1005.32 1005.12 1004.95 1004.80 1004.64 1004.47 1004.26 1004.01 1003.69 1003.35 1002.99 1002.65 1002.35 1002.11 1001.95
1009.85 1010.23 1010.47 1010.49 1010.24 1009.72 1008.97 1008.07 1007.14 1006.29 1005.62 1005.22 1005.09 1005.21 1005.52 1005.93 1006.35 1006.70 1006.93 1007.01 1006.96 1006.83 1006.64 1006.46 1006.32 1006.23 1006.19 1006.16 1006.14 1006.08 1005.97 1005.82 1005.63 1005.42 1005.21 1005.02 1004.85 1004.69 1004.52 1004.33 1004.08 1003.77 1003.40 1002.98 1002.54 1002.11 1001.73 1001.41 1001.18
1009.50 1009.90 1010.16 1010.20 1009.99 1009.51 1008.82 1007.99 1007.13 1006.34 1005.73 1005.36 1005.24 1005.36 1005.65 1006.05 1006.45 1006.79 1007.01 1007.10 1007.06 1006.92 1006.74 1006.55 1006.39 1006.27 1006.19 1006.12 1006.05 1005.95 1005.82 1005.65 1005.45 1005.23 1005.03 1004.85 1004.68 1004.53 1004.36 1004.15 1003.89 1003.55 1003.13 1002.65 1002.15 1001.64 1001.17 1000.78 1000.47
1009.02 1009.40 1009.65 1009.71 1009.54 1009.13 1008.52 1007.79 1007.02 1006.33 1005.79 1005.46 1005.37 1005.49 1005.77 1006.13 1006.51 1006.82 1007.03 1007.12 1007.08 1006.96 1006.78 1006.59 1006.42 1006.27 1006.15 1006.04 1005.93 1005.79 1005.62 1005.43 1005.21 1005.00 1004.79 1004.61 1004.45 1004.29 1004.13 1003.92 1003.65 1003.29 1002.86 1002.35 1001.80 1001.23 1000.70 1000.23 999.84
1008.45 1008.79 1009.02 1009.08 1008.93 1008.59 1008.07 1007.45 1006.81 1006.22 1005.77 1005.51 1005.45 1005.57 1005.82 1006.15 1006.49 1006.77 1006.96 1007.04 1007.01 1006.90 1006.74 1006.55 1006.38 1006.22 1006.07 1005.93 1005.78 1005.61 1005.41 1005.19 1004.96 1004.73 1004.51 1004.32 1004.16 1004.00 1003.83 1003.62 1003.35 1002.99 1002.55 1002.04 1001.47 1000.87 1000.29 999.75 999.28
1007.88 1008.15 1008.33 1008.36 1008.23 1007.94 1007.52 1007.01 1006.49 1006.02 1005.68 1005.48 1005.45 1005.57 1005.80 1006.09 1006.38 1006.62 1006.78 1006.85 1006.83 1006.73 1006.59 1006.43 1006.27 1006.11 1005.96 1005.81 1005.64 1005.45 1005.23 1004.98 1004.73 1004.48 1004.24 1004.02 1003.83 1003.65 1003.46 1003.25 1002.97 1002.62 1002.20 1001.70 1001.13 1000.53 999.93 999.35 998.81
1007.38 1007.56 1007.65 1007.64 1007.50 1007.24 1006.89 1006.48 1006.08 1005.73 1005.48 1005.35 1005.36 1005.48 1005.68 1005.93 1006.17 1006.37 1006.51 1006.57 1006.56 1006.49 1006.38 1006.26 1006.12 1005.99 1005.86 1005.71 1005.54 1005.34 1005.11 1004.85 1004.56 1004.28 1004.00 1003.73 1003.49 1003.27 1003.04 1002.80 1002.52 1002.18 1001.77 1001.30 1000.77 1000.19 999.59 999.00 998.43
Thickness
5724 5727 5730 5728 5722 5721 5726 5736 5739 5738 5743 5750 5752 5752 5754 5755 5753 5751 5764 5770 5771 5772 5771 5767 5765 5764 5762 5761 5760 5759 5758 5757 5756 5755 5754 5752 5751 5750 5749 5747 5746 5745 5744 5742 5741 5740 5738 5737 5735
5722 5725 5724 5721 5716 5718 5727 5735 5733 5738 5743 5746 5748 5749 5750 5754 5760 5761 5763 5764 5766 5767 5766 5765 5761 5760 5759 5757 5756 5755 5754 5753 5752 5751 5750 5749 5748 5746 5745 5744 5743 5742 5740 5739 5737 5736 5735 5733 5731
5719 5721 5717 5715 5715 5722 5728 5732 5733 5736 5741 5740 5742 5746 5747 5750 5755 5757 5758 5759 5761 5761 5761 5760 5757 5756 5755 5754 5753 5751 5750 5750 5749 5748 5747 5746 5744 5743 5742 5741 5739 5738 5737 5735 5734 5732 5730 5729 5727
5714 5712 5712 5709 5713 5722 5726 5729 5729 5731 5735 5737 5737 5739 5745 5749 5750 5753 5753 5754 5755 5756 5756 5754 5752 5751 5750 5749 5749 5748 5747 5746 5745 5744 5743 5742 5741 5739 5738 5737 5735 5734 5733 5731 5730 5728 5726 5725 5723
5709 5706 5702 5704 5711 5720 5724 5725 5724 5725 5728 5732 5732 5733 5737 5745 5747 5748 5748 5749 5750 5750 5750 5749 5746 5746 5745 5745 5744 5744 5743 5742 5741 5740 5739 5738 5737 5736 5734 5733 5731 5730 5728 5727 5725 5724 5723 5721 5719
5699 5700 5698 5704 5710 5715 5719 5720 5719 5721 5724 5726 5726 5728 5736 5742 5741 5741 5743 5743 5744 5744 5744 5743 5741 5740 5740 5740 5740 5739 5738 5737 5737 5736 5735 5734 5733 5732 5731 5729 5728 5726 5724 5723 5721 5720 5719 5717 5716
5692 5692 5695 5701 5703 5706 5711 5715 5714 5715 5718 5721 5723 5722 5732 5736 5736 5736 5737 5737 5738 5738 5738 5738 5738 5736 5735 5735 5735 5734 5733 5733 5732 5731 5730 5729 5728 5727 5726 5725 5723 5722 5720 5719 5717 5716 5714 5713 5712
5691 5688 5688 5693 5695 5700 5706 5707 5709 5709 5713 5719 5718 5716 5723 5728 5728 5728 5729 5730 5731 5731 5732 5733 5733 5733 5732 5732 5730 5729 5728 5728 5727 5726 5725 5724 5723 5722 5721 5720 5719 5717 5716 5714 5713 5711 5710 5709 5707
5683 5678 5684 5690 5690 5695 5698 5698 5702 5705 5706 5709 5713 5715 5717 5718 5718 5718 5720 5722 5723 5724 5726 5727 5728 5728 5728 5728 5727 5725 5723 5723 5722 5721 5720 5719 5719 5719 5717 5716 5714 5713 5711 5710 5709 5707 5705 5704 5703
5674 5674 5683 5687 5689 5689 5690 5689 5692 5695 5697 5702 5706 5709 5710 5709 5710 5710 5712 5714 5716 5718 5719 5721 5722 5722 5722 5722 5722 5721 5720 5719 5718 5718 5717 5715 5715 5715 5714 5711 5709 5708 5706 5705 5704 5702 5701 5700 5700
5669 5672 5677 5677 5679 5679 5680 5683 5686 5685 5690 5697 5698 5701 5701 5701 5702 5703 5706 5709 5711 5712 5712 5714 5715 5716 5716 5716 5716 5716 5716 5715 5715 5714 5713 5711 5710 5709 5708 5706 5704 5703 5701 5701 5700 5698 5698 5698 5697
5662 5666 5668 5670 5670 5670 5672 5676 5679 5681 5687 5693 5694 5694 5693 5694 5695 5697 5699 5702 5704 5705 5706 5708 5708 5709 5710 5710 5710 5710 5711 5710 5710 5709 5707 5706 5705 5704 5704 5702 5701 5700 5699 5698 5696 5695 5695 5694 5693
5656 5659 5661 5662 5662 5664 5665 5668 5671 5679 5685 5687 5687 5686 5687 5688 5689 5690 5692 5695 5697 5698 5700 5701 5702 5703 5703 5703 5704 5704 5704 5705 5705 5703 5702 5701 5699 5698 5698 5698 5696 5695 5694 5693 5691 5691 5690 5690 5689
5653 5653 5655 5658 5659 5660 5660 5666 5665 5676 5678 5679 5679 5679 5681 5681 5682 5683 5684 5687 5690 5692 5693 5695 5695 5696 5697 5697 5698 5698 5698 5698 5698 5697 5696 5695 5694 5693 5691 5691 5690 5689 5688 5687 5686 5685 5684 5683 5683
5645 5645 5651 5655 5655 5656 5654 5662 5666 5672 5671 5672 5674 5675 5674 5674 5675 5676 5677 5679 5682 5684 5686 5688 5688 5690 5690 5691 5691 5691 5691 5692 5691 5690 5690 5689 5688 5686 5685 5684 5684 5683 5681 5680 5679 5679 5677 5676 5676
5638 5640 5645 5651 5649 5649 5645 5658 5667 5666 5664 5666 5668 5669 5668 5668 5669 5671 5671 5672 5674 5676 5678 5680 5680 5682 5684 5684 5684 5684 5685 5684 5684 5683 5683 5682 5681 5680 5678 5677 5677 5676 5675 5673 5672 5671 5669 5669 5668
5634 5638 5642 5645 5645 5643 5642 5651 5662 5661 5658 5660 5662 5663 5662 5662 5663 5664 5665 5666 5667 5669 5671 5671 5672 5675 5676 5676 5675 5676 5677 5676 5676 5675 5675 5674 5674 5672 5671 5671 5670 5669 5667 5666 5665 5664 5662 5661 5660
5634 5635 5635 5637 5640 5636 5637 5646 5656 5656 5653 5655 5656 5657 5656 5656 5657 5658 5658 5659 5660 5661 5663 5664 5665 5667 5668 5667 5667 5667 5668 5668 5668 5667 5667 5666 5666 5665 5664 5663 5663 5662 5660 5658 5658 5656 5654 5653 5652
5626 5625 5628 5633 5631 5626 5634 5641 5650 5651 5648 5649 5650 5650 5650 5650 5651 5651 5651 5652 5653 5653 5655 5656 5657 5658 5658 5658 5658 5658 5659 5659 5658 5658 5658 5658 5657 5656 5655 5655 5655 5654 5652 5651 5651 5649 5647 5645 5643
5615 5615 5622 5626 5621 5620 5628 5637 5646 5646 5644 5644 5643 5643 5643 5643 5643 5643 5644 5645 5645 5645 5646 5647 5648 5649 5648 5648 5649 5649 5650 5650 5650 5649 5648 5648 5647 5647 5646 5646 5646 5645 5644 5643 5643 5641 5639 5637 5634
5609 5611 5615 5614 5615 5615 5615 5635 5641 5639 5636 5635 5636 5636 5636 5635 5635 5636 5636 5636 5637 5637 5637 5637 5637 5637 5638 5638 5639 5639 5639 5639 5639 5639 5639 5639 5638 5638 5637 5637 5637 5637 5636 5636 5635 5633 5631 5628 5626
5606 5609 5604 5601 5601 5610 5605 5617 5639 5636 5631 5629 5630 5629 5629 5628 5628 5628 5627 5627 5627 5627 5627 5627 5627 5628 5628 5628 5629 5629 5629 5630 5632 5630 5630 5629 5628 5628 5628 5627 5627 5628 5628 5627 5627 5625 5623 5620 5618
5602 5598 5595 5593 5593 5593 5602 5598 5631 5630 5626 5626 5625 5623 5621 5620 5619 5618 5618 5617 5617 5617 5617 5617 5618 5618 5618 5618 5618 5619 5619 5620 5620 5619 5619 5620 5619 5618 5618 5618 5618 5619 5619 5619 5619 5617 5615 5613 5612
5589 5587 5585 5583 5584 5586 5602 5598 5621 5626 5624 5620 5618 5615 5612 5611 5609 5609 5608 5607 5607 5607 5606 5606 5608 5609 5609 5609 5609 5609 5608 5609 5609 5609 5609 5609 5609 5609 5609 5608 5609 5609 5610 5611 5611 5609 5608 5606 5605
5582 5582 5582 5584 5584 5596 5594 5591 5613 5619 5614 5611 5608 5606 5604 5602 5601 5600 5599 5598 5598 5597 5596 5596 5598 5600 5600 5600 5600 5601 5599 5599 5600 5599 5599 5599 5599 5599 5599 5599 5600 5601 5601 5602 5601 5601 5600 5599 5598
5579 5580 5580 5581 5590 5595 5584 5589 5610 5607 5602 5600 5598 5597 5595 5594 5592 5590 5589 5589 5589 5588 5588 5588 5589 5590 5590 5590 5591 5591 5590 5590 5590 5589 5589 5589 5589 5590 5590 5589 5589 5591 5592 5592 5593 5593 5593 5592 5591
5570 5572 5574 5568 5563 5565 5585 5591 5598 5598 5594 5591 5590 5588 5587 5586 5583 5581 5581 5580 5580 5580 5580 5579 5580 5581 5581 5580 5580 5581 5580 5580 5579 5579 5579 5579 5579 5579 5579 5579 5580 5581 5582 5583 5583 5585 5585 5584 5584
5566 5566 5558 5556 5556 5566 5581 5584 5594 5591 5589 5586 5583 5580 5578 5576 5574 5573 5572 5571 5571 5570 5570 5570 5570 5570 5570 5570 5570 5569 5569 5569 5569 5569 5569 5569 5569 5569 5569 5570 5570 5571 5572 5573 5574 5575 5575 5575 5575
5551 5550 5554 5555 5553 5557 5567 5584 5593 5586 5582 5578 5575 5572 5568 5566 5565 5564 5562 5561 5560 5560 5560 5560 5560 5560 5560 5559 5559 5558 5558 5558 5558 5558 5558 5558 5559 5559 5559 5560 5560 5561 5562 5563 5564 5565 5566 5566 5566
5552 5554 5551 5546 5543 5543 5552 5571 5583 5578 5573 5568 5565 5561 5559 5557 5555 5553 5552 5551 5551 5550 5549 5549 5550 5550 5549 5549 5548 5548 5547 5547 5547 5547 5548 5547 5548 5548 5548 5549 5549 5550 5551 5552 5554 5555 5556 5556 5557